Starlink 31727

operational
NORAD ID: 59638 Int'l Des: 2024-082 Owner: SPXS Country: US Constellation: starlink
LEOCIRCULAR

About Starlink 31727

Description loading...

Live Position

Loading 3D Globe...

Upcoming Passes

Altitude History

Altitude vs Time

uPlot chart will show altitude changes over time

Two-Line Element Set

1 59638U 24082H 25349.18604644 -.00005625 00000-0 -19505-3 0 9996
2 59638 43.0016 257.4308 0001613 281.8096 78.2575 15.27576052 91937
Epoch: Dec 15, 2025 • Age: 30 hours

Current Status

Altitude 487.2 km
Velocity 7.63 km/s
Sub-Earth Point 42.90°N, 87.51°E
Launch Date May 3, 2024
Age 1.6 years
Type internet

Technical Details

Classification Payload
Mass 730.00 kg
Dry Mass 700.00 kg
Total Mass 730.00 kg
Length 0.30 m
Diameter 4.10 m
Span 29.00 m
Shape Box + pan
Manufacturer SPXS
Bus Type Starlink V2M
Phase Status In Orbit
Owner/State SPXS/US

Large Constellations

Loading constellations...